Location: Angwan Shehu
(11.2514°N, 7.4613°E)
Time: 02:00:42
(UTC+00:00)

Tiros 1 - Pass Details

Date: 21 April 2021
Orbit: 630 x 664 km, 48.4° (Epoch: 06 May)

Event Time Altitude Azimuth Distance (km) Brightness Sun altitude
Rises 17:06:52 0° 302° (WNW) 2,910 12.0 7.6°
Reaches altitude 10° 17:09:27 10° 290° (WNW) 2,007 12.2 7.0°
Maximum altitude 17:13:21 27° 232° (SW) 1,219 9.2 6.1°
Drops below altitude 10° 17:17:17 10° 174° (S) 2,023 9.6 5.1°
Sets 17:19:54 0° 162° (SSE) 2,939 10.2 4.5°
